GW1347 Weather Reports


Display with metric or nautical units.
time (UTC)temp
F
wind
direction
speed
MPH
gust
MPH
rain 1hr
in
rain 24hr
in
rain mn
in
humidity
%
barometer
mb
20260502205338 56 107 4.0 13.0 0.00 0.00 0.00 35 1017.6
20260502204330 56 20 6.0 13.0 0.00 0.00 0.00 34 1017.6
20260502203331 57 329 3.0 13.0 0.00 0.00 0.00 35 1017.6
20260502201204 56 309 4.0 15.0 0.00 0.00 0.00 34 1017.7
20260502195023 57 13 4.0 14.0 0.00 0.00 0.00 34 1017.8
20260502194041 57 314 4.0 13.0 0.00 0.00 0.00 33 1017.9
20260502193020 56 333 5.0 13.0 0.00 0.00 0.00 36 1017.9
20260502192042 55 338 4.0 13.0 0.00 0.00 0.00 35 1017.9
20260502191019 57 343 3.0 11.0 0.00 0.00 0.00 35 1018.1
20260502184906 55 272 3.0 11.0 0.00 0.00 0.00 40 1018.3
20260502183914 55 359 3.0 11.0 0.00 0.00 0.00 35 1018.3
20260502181812 55 282 3.0 9.0 0.00 0.00 0.00 37 1018.5
20260502180815 56 286 1.0 9.0 0.00 0.00 0.00 38 1018.4
20260502170520 54 312 1.0 5.0 0.00 0.00 0.00 45 1019.1
20260502163425 56 207 1.0 5.0 0.00 0.00 0.00 45 1019.2
20260502162408 55 233 2.0 7.0 0.00 0.00 0.00 45 1019.4
20260502161408 55 316 1.0 9.0 0.00 0.00 0.00 47 1019.5
20260502160337 53 227 2.0 9.0 0.00 0.00 0.00 46 1019.6
20260502151147 50 234 1.0 7.0 0.00 0.00 0.00 52 1019.6
20260502122910 42 343 1.0 3.0 0.00 0.00 0.00 76 1019.1
20260502121843 42 21 0.0 2.0 0.00 0.00 0.00 77 1019.0
20260502120842 42 345 0.0 0.0 0.00 0.00 0.00 80 1019.0
20260502115844 42 359 0.0 1.0 0.00 0.00 0.00 81 1018.8
20260502114844 42 1 0.0 0.0 0.00 0.00 0.00 81 1018.6
20260502113846 42 1 0.0 1.0 0.00 0.00 0.00 76 1018.6
20260502112819 42 5 0.0 0.0 0.00 0.00 0.00 79 1018.5
20260502111824 41 333 0.0 1.0 0.00 0.00 0.00 79 1018.2
20260502104543 39 357 0.0 0.0 0.00 0.00 0.00 83 1018.1
20260502103527 40 357 0.0 0.0 0.00 0.00 0.00 82 1017.8
20260502102523 40 357 0.0 0.0 0.00 0.00 0.00 81 1017.7
20260502101511 41 337 0.0 3.0 0.00 0.00 0.00 80 1017.6
20260502100447 41 345 1.0 3.0 0.00 0.00 0.00 82 1017.7
20260502091443 41 17 0.0 0.0 0.00 0.00 0.00 82 1018.1
20260502090413 42 18 0.0 3.0 0.00 0.00 0.00 80 1018.1
20260502071210 43 333 1.0 3.0 0.00 0.00 0.00 85 1017.6
20260502070207 42 359 0.0 3.0 0.00 0.00 0.00 90 1017.7
20260502064040 42 321 0.0 0.0 0.00 0.00 0.00 92 1017.8
20260502063037 41 291 0.0 0.0 0.00 0.00 0.00 92 1017.9
20260502062046 41 291 0.0 0.0 0.00 0.00 0.00 92 1017.9
20260502055825 41 291 0.0 0.0 0.00 0.00 0.00 91 1018.1
20260502054831 41 291 0.0 0.0 0.00 0.00 0.00 91 1018.1
20260502053759 41 291 0.0 0.0 0.00 0.00 0.00 91 1018.1
20260502052801 41 291 0.0 0.0 0.00 0.00 0.00 90 1018.1
20260502051757 42 291 0.0 0.0 0.00 0.00 0.00 90 1017.7
20260502050732 42 291 0.0 0.0 0.00 0.00 0.00 89 1017.9
20260502045743 42 291 0.0 0.0 0.00 0.00 0.00 89 1017.9
20260502044737 42 291 0.0 0.0 0.00 0.00 0.00 87 1018.0
20260502043734 42 291 0.0 0.0 0.00 0.00 0.00 87 1018.1
20260502041617 43 291 0.0 0.0 0.00 0.00 0.00 85 1018.2
20260502040553 44 291 0.0 0.0 0.00 0.00 0.00 84 1018.3
20260502035552 44 291 0.0 0.0 0.00 0.00 0.00 84 1018.2
20260502034610 45 313 0.0 0.0 0.00 0.00 0.00 80 1018.1
20260502032432 47 345 0.0 0.0 0.00 0.00 0.00 74 1018.2
20260502030315 45 344 0.0 0.0 0.00 0.00 0.00 76 1018.1
20260502025335 46 344 0.0 0.0 0.00 0.00 0.00 74 1018.2
20260502024326 47 344 0.0 1.0 0.00 0.00 0.00 69 1018.2
20260502023313 47 354 0.0 1.0 0.00 0.00 0.00 71 1018.1
20260502022323 48 326 0.0 1.0 0.00 0.00 0.00 70 1018.0
20260502021335 48 358 0.0 1.0 0.00 0.00 0.00 69 1017.9
20260502020333 48 335 0.0 1.0 0.00 0.00 0.00 68 1017.9
20260502015316 50 8 0.0 0.0 0.00 0.00 0.00 64 1017.6
20260502014309 49 8 0.0 0.0 0.00 0.00 0.00 65 1017.6
20260502013333 50 8 0.0 1.0 0.00 0.00 0.00 63 1017.6
20260502012323 50 348 0.0 0.0 0.00 0.00 0.00 63 1017.6
20260502011300 51 348 1.0 0.0 0.00 0.00 0.00 59 1017.3
20260502004051 51 327 3.0 9.0 0.00 0.00 0.00 58 1016.6
20260502001841 53 324 5.0 11.0 0.00 0.00 0.00 54 1016.1
20260501235641 54 28 4.0 11.0 0.00 0.00 0.00 50 1015.8
20260501234647 54 324 3.0 11.0 0.00 0.00 0.00 50 1015.8
20260501233625 54 286 3.0 11.0 0.00 0.00 0.00 48 1015.9
20260501232609 55 257 4.0 11.0 0.00 0.00 0.00 47 1016.1
20260501231547 55 12 3.0 11.0 0.00 0.00 0.00 48 1016.1
20260501230557 55 299 4.0 11.0 0.00 0.00 0.00 48 1016.1
20260501225621 55 7 3.0 11.0 0.00 0.00 0.00 47 1016.0
20260501224617 57 342 3.0 14.0 0.00 0.00 0.00 45 1016.0
20260501223618 57 351 3.0 14.0 0.00 0.00 0.00 44 1016.0
20260501222604 57 19 2.0 8.0 0.00 0.00 0.00 45 1015.9
20260501221608 56 271 2.0 8.0 0.00 0.00 0.00 47 1015.8
20260501220542 56 343 3.0 8.0 0.00 0.00 0.00 46 1015.8
20260501215529 56 304 3.0 10.0 0.00 0.00 0.00 45 1015.9
20260501214524 56 349 3.0 10.0 0.00 0.00 0.00 47 1015.8
20260501213546 56 54 3.0 7.0 0.00 0.00 0.00 45 1015.9
20260501212604 56 288 3.0 10.0 0.00 0.00 0.00 45 1016.0
20260501211540 58 333 3.0 13.0 0.00 0.00 0.00 43 1016.2
20260501210538 59 23 3.0 13.0 0.00 0.00 0.00 41 1016.1